Probability
0 0 0 0 0 0 0 0 0 0 0 0 0 0 1 3 4 4 4 3 1 0 0 0 0 0 0 0 0 0 0 0 0 0 0 0 0 0 0 0 0 0 0
0 0 0 0 0 0 0 0 0 0 0 0 0 0 1 3 4 3 3 2 1 0 0 0 0 0 0 0 0 0 0 0 0 0 0 0 0 0 0 0 0 0 0
0 0 0 0 0 0 0 0 0 0 0 0 0 0 1 2 2 2 1 1 0 0 0 0 0 0 0 0 0 0 0 0 0 0 0 0 0 0 0 0 0 0 0
0 0 0 0 0 0 0 0 0 0 0 0 0 0 0 1 1 0 0 0 0 0 0 0 0 0 0 0 0 0 0 0 0 0 0 0 0 0 0 0 0 0 0
0 0 0 0 0 0 0 0 0 0 0 0 0 0 0 0 0 0 0 0 0 0 0 0 0 0 0 0 0 0 0 0 0 0 0 0 0 0 0 0 0 0 0
0 0 0 0 0 0 0 0 0 0 1 1 1 0 0 0 0 0 0 0 0 0 0 0 0 0 0 0 0 0 0 0 0 0 0 0 0 0 0 0 0 0 0
0 0 0 0 0 0 0 0 0 0 1 1 1 0 0 0 0 0 0 0 0 0 0 0 0 0 0 0 0 0 0 0 0 0 0 0 0 0 0 0 0 0 0
0 0 0 0 0 0 0 0 0 0 0 0 0 0 0 0 0 0 0 0 0 0 0 0 0 0 0 0 0 0 0 0 0 0 0 0 0 0 1 1 0 0 0
0 0 0 0 0 0 0 0 0 0 0 0 0 0 0 0 0 0 0 0 0 0 0 0 0 0 0 0 0 0 0 0 0 0 0 0 0 0 1 1 0 0 0
0 0 0 0 0 0 0 0 0 1 0 0 0 0 0 0 0 0 0 0 0 0 0 0 0 0 0 0 0 0 0 0 0 0 0 0 0 0 1 1 0 0 0
0 0 0 0 0 0 0 0 0 0 0 0 0 0 0 0 0 0 0 0 0 0 0 0 0 0 0 0 0 0 0 0 0 0 0 0 0 0 0 0 0 0 0
0 0 0 0 0 0 0 0 0 0 0 0 0 0 0 0 0 0 0 0 0 0 0 0 0 0 0 0 0 0 0 0 0 0 0 0 0 0 0 0 0 0 0
0 0 0 0 0 0 0 0 0 0 0 0 0 0 0 0 0 0 0 0 0 0 0 0 0 0 0 0 0 0 0 0 0 0 0 0 0 0 0 0 0 0 0
0 0 0 0 0 0 0 0 0 0 0 0 0 0 0 0 0 0 0 0 0 0 0 0 0 0 0 0 0 0 0 0 0 0 0 0 0 0 0 0 0 0 0
0 0 0 0 0 0 0 0 0 0 0 0 0 0 0 0 0 0 0 0 0 0 0 0 0 0 0 0 0 0 0 0 0 0 0 0 0 0 0 0 0 0 0
0 0 0 0 0 0 0 0 0 0 0 0 0 0 0 0 0 0 0 0 0 0 0 0 0 0 0 0 0 0 0 0 0 0 0 0 0 0 0 0 0 0 0
0 0 0 0 0 0 0 0 0 0 0 0 0 0 0 0 0 0 0 0 0 0 0 0 0 0 0 0 0 0 0 0 0 0 0 0 0 0 0 0 1 1 1
1 1 1 0 0 0 0 0 0 0 0 0 0 0 0 0 0 1 0 0 0 0 0 0 0 0 0 0 0 0 0 0 0 0 0 0 0 0 0 0 1 2 2
2 2 2 1 0 0 0 0 0 0 0 0 0 0 0 0 0 0 0 0 0 0 0 0 0 0 0 0 0 0 0 0 0 0 0 0 0 0 0 0 1 1 1
3 3 2 1 0 0 0 0 0 0 0 0 0 0 0 0 0 0 0 0 0 0 0 0 0 0 0 0 0 0 0 0 0 0 0 0 0 0 0 0 0 0 0
1 2 2 1 0 0 0 0 0 0 0 0 0 0 0 0 0 0 0 0 0 0 0 0 0 0 0 0 0 0 0 0 0 0 0 0 0 0 0 0 0 0 0
0 1 1 1 1 0 0 0 0 0 0 0 0 0 0 0 0 0 0 0 0 0 0 0 0 0 0 0 0 0 0 0 0 0 0 0 0 0 0 0 0 0 0
0 0 0 1 2 1 0 0 0 0 0 0 0 0 0 0 0 0 0 0 0 0 0 0 0 0 0 0 0 0 0 0 0 0 0 0 0 0 0 0 0 0 0
0 0 0 1 2 2 1 0 0 0 0 0 0 0 0 0 0 0 0 0 0 0 0 0 0 0 0 0 0 0 0 0 0 0 0 0 0 0 0 0 0 0 0
0 0 0 0 1 1 1 0 0 0 0 0 0 0 0 0 0 0 0 0 0 0 0 0 0 0 0 0 0 0 0 0 0 0 0 0 0 0 0 0 0 0 0
1 1 1 0 0 1 0 0 0 0 0 0 0 0 0 0 0 0 0 0 0 0 0 0 0 0 0 0 0 0 0 0 0 0 0 0 0 0 0 0 0 0 0
Wind_Speed
1 2 6 7 9 9 9 9 9 9 9 10 10 11 11 11 11 11 11 10 10 10 10 10 10 10 10 10 9 9 9 9 9 10 9 9 8 8 9 9 8 5 8
4 3 8 9 9 10 9 9 9 10 10 10 10 10 10 10 11 10 10 10 10 10 10 10 10 10 9 9 9 8 8 8 9 9 9 8 8 8 8 8 8 5 8
6 4 7 9 10 10 9 9 9 10 9 9 10 10 10 10 10 10 10 10 10 10 10 9 9 9 9 9 8 8 7 8 8 9 8 4 5 8 8 8 8 8 8
7 5 6 9 10 9 9 9 9 9 9 9 9 9 9 10 9 10 10 10 10 9 9 9 9 8 8 8 8 8 8 8 9 8 4 3 3 7 8 8 8 7 7
7 5 6 10 9 9 9 8 8 8 8 9 9 9 9 9 9 9 9 9 9 9 9 8 8 8 8 8 8 8 8 8 9 7 4 3 3 6 7 7 7 7 7
6 4 6 10 9 9 8 8 8 8 8 8 9 9 9 9 9 9 9 9 9 8 8 8 8 8 8 8 8 8 8 9 7 4 3 3 2 6 7 7 7 7 6
6 4 5 9 10 9 8 7 8 8 8 8 8 8 8 8 9 9 8 8 8 8 8 7 7 8 8 7 8 8 8 8 5 3 3 2 3 6 7 7 7 7 7
7 4 4 8 10 9 8 8 7 8 8 7 7 7 8 8 8 8 8 8 7 7 7 7 7 7 7 7 8 8 8 7 6 4 3 2 5 7 7 7 7 7 7
6 4 3 3 5 8 8 8 7 7 7 7 6 7 7 7 7 7 7 6 6 6 6 6 6 6 7 7 8 8 9 8 4 2 3 2 5 7 7 7 7 7 7
5 4 3 3 3 3 3 7 7 7 7 6 6 6 5 5 5 6 5 5 5 5 5 5 5 6 6 7 7 8 8 6 3 2 1 2 6 7 7 7 7 7 7
5 4 4 3 3 3 3 5 5 6 5 5 4 4 3 2 2 2 3 4 4 4 4 5 5 6 7 7 8 8 6 3 2 1 1 4 6 7 7 8 8 8 8
5 5 4 4 3 3 3 2 1 2 1 1 1 2 1 1 1 2 2 3 3 4 4 5 6 6 5 3 5 6 3 3 2 1 2 5 6 7 7 8 8 8 8
5 5 5 4 4 3 2 2 1 1 1 1 2 2 2 1 1 1 1 1 2 2 2 3 4 3 3 3 3 3 3 2 2 2 2 6 7 7 8 8 8 8 8
4 4 4 5 4 3 3 2 2 2 2 1 1 2 2 1 1 1 1 1 1 1 2 2 2 3 3 3 3 3 3 2 2 2 3 8 8 8 8 8 8 8 8
5 4 4 4 4 3 3 2 2 2 2 2 1 1 2 2 2 2 1 1 1 1 2 2 2 3 3 3 3 3 4 3 3 3 3 7 8 8 8 8 8 8 8
5 5 4 4 4 4 3 2 2 2 2 2 1 2 3 3 2 2 2 2 1 1 2 2 3 3 2 3 3 3 3 3 3 3 2 4 7 8 8 8 8 8 8
4 4 4 4 4 4 3 2 2 2 2 2 1 2 3 3 3 3 3 2 1 1 3 3 3 3 3 3 3 3 3 3 3 3 3 2 3 6 7 8 8 8 8
4 4 3 4 4 4 3 3 2 2 2 2 1 2 3 4 4 3 3 2 2 2 2 3 2 3 3 3 3 2 3 2 3 3 3 3 3 3 5 7 8 7 7
5 4 3 3 4 3 3 3 3 3 3 2 2 2 2 3 3 3 3 2 2 2 2 3 2 2 3 3 2 3 2 2 2 3 3 3 3 3 3 5 7 7 6
4 4 3 3 3 4 3 3 2 3 2 2 2 2 2 2 3 3 3 3 3 3 2 2 3 2 2 2 4 4 3 3 3 3 2 3 3 3 3 4 3 4 7
4 4 3 4 3 3 2 2 2 1 1 1 1 2 2 2 3 3 3 3 3 3 2 3 3 3 2 2 4 3 4 4 4 3 2 3 3 3 3 3 3 3 3
4 4 4 4 4 3 2 2 2 2 1 1 1 1 1 2 2 3 4 3 3 3 3 3 3 2 1 1 3 3 2 3 4 4 2 3 2 2 3 3 3 3 2
4 4 5 4 4 4 3 2 2 2 2 2 1 1 1 1 2 3 3 3 3 3 3 3 3 4 2 0 1 3 3 2 1 2 3 2 2 2 1 2 2 2 2
4 4 4 4 4 4 4 4 4 3 2 1 1 0 1 1 2 3 3 3 3 3 3 3 3 3 3 1 0 0 2 4 3 1 2 2 2 2 1 1 1 1 1
4 3 3 3 4 4 4 4 4 3 2 1 1 1 1 1 1 2 3 3 3 2 3 2 2 2 2 2 2 1 2 1 2 3 1 1 2 1 1 0 0 0 1
3 3 3 3 3 3 4 4 4 4 3 3 1 1 0 0 1 1 2 2 2 2 2 2 2 3 2 2 2 2 2 2 2 2 2 2 1 1 1 1 0 0 0
Wind_Direction
151 163 128 117 110 104 99 96 97 99 97 96 95 91 88 86 85 84 85 84 84 83 83 82 81 80 80 82 84 85 85 86 84 83 82 83 85 89 91 92 86 87 98
151 141 126 118 113 108 103 99 98 99 98 97 96 93 90 88 87 85 85 85 86 84 82 83 81 78 78 78 80 80 79 83 84 81 79 76 78 84 89 93 95 99 100
129 127 123 120 116 114 111 105 102 102 100 101 100 97 93 91 90 87 87 87 87 85 83 83 82 81 78 75 73 72 73 80 85 84 79 64 72 82 88 93 97 97 100
133 133 129 126 123 121 115 109 105 105 105 105 105 100 96 93 93 90 88 88 89 88 85 81 80 80 76 71 69 70 72 79 83 85 70 55 67 84 87 92 94 97 97
129 133 137 130 126 121 115 112 110 108 107 108 106 103 100 98 96 92 89 89 89 88 86 82 79 76 72 70 68 68 70 79 85 81 67 56 57 85 89 92 94 94 97
128 133 141 135 131 124 118 114 115 116 113 111 110 109 104 101 98 96 95 93 91 89 84 81 78 74 70 67 63 63 70 79 82 72 63 59 62 87 94 93 94 95 94
135 138 146 141 137 133 129 124 120 122 119 115 115 115 111 108 105 103 100 95 92 89 83 80 77 74 70 67 63 63 71 85 81 76 67 61 77 88 91 91 91 93 94
141 143 145 144 140 139 138 133 130 129 127 124 122 122 118 115 112 109 103 97 93 89 84 82 75 70 69 68 65 65 71 87 82 84 68 63 85 86 90 89 87 91 95
137 136 144 147 140 142 142 139 140 137 135 132 128 127 124 123 121 119 114 108 103 101 94 86 78 72 67 65 64 61 69 77 68 69 77 67 85 86 92 93 90 90 95
139 144 152 151 144 143 147 153 153 147 144 141 139 135 131 127 128 127 122 119 110 104 95 84 76 71 71 67 61 57 66 69 55 54 53 88 93 89 92 97 96 95 94
150 160 161 163 161 163 172 170 160 156 154 149 148 145 132 105 107 128 138 132 117 103 91 83 76 72 69 62 58 58 60 55 52 52 50 92 97 93 92 94 95 94 91
169 178 171 174 172 173 180 151 153 166 160 155 163 165 138 138 149 146 142 136 112 95 83 81 76 64 60 47 52 57 60 59 54 48 79 96 99 98 95 96 94 91 90
171 171 175 176 174 171 167 161 163 164 157 173 171 170 154 137 120 99 75 65 74 73 59 66 65 57 58 59 54 55 70 67 53 32 65 88 94 99 99 99 95 91 89
157 170 171 166 167 174 167 163 160 157 163 181 184 161 143 133 125 126 118 103 76 71 80 73 77 69 64 66 69 65 76 70 57 39 55 73 82 91 96 98 95 91 88
161 172 169 159 163 166 162 167 155 162 165 158 141 146 141 135 138 135 130 117 101 99 102 95 85 76 74 73 74 74 76 77 65 57 51 68 76 82 88 92 91 89 86
163 166 167 163 161 154 157 165 157 158 139 122 128 141 140 137 136 132 116 108 103 109 107 106 104 91 76 75 70 72 79 83 72 67 56 61 72 80 86 90 90 89 85
157 153 157 164 153 145 148 155 140 140 126 124 137 140 133 129 125 125 113 113 121 105 99 93 87 80 77 69 62 66 79 84 84 73 66 56 54 68 80 87 88 85 79
146 147 153 151 137 134 134 134 126 121 117 123 125 126 126 126 129 124 121 125 118 98 96 98 96 85 73 67 56 48 64 76 81 80 71 65 55 50 61 75 78 79 78
153 150 140 134 133 129 125 117 109 103 98 102 107 111 115 118 123 126 126 123 111 97 92 103 91 101 94 81 74 55 50 60 66 83 77 71 65 60 52 62 64 63 67
149 140 128 124 122 117 108 99 84 75 74 78 88 107 112 117 123 119 120 123 116 104 91 99 104 88 100 98 82 60 40 42 52 66 82 74 63 65 60 53 45 44 51
132 134 135 130 129 121 117 118 112 107 90 75 75 88 100 114 127 123 127 129 121 119 127 125 112 95 84 100 86 55 26 28 45 48 56 70 65 66 66 60 54 43 30
145 142 140 139 141 137 142 148 143 135 123 110 72 63 85 110 127 134 137 141 136 122 110 113 113 111 119 117 116 101 45 14 15 27 41 74 71 63 67 69 59 53 37
144 153 152 153 147 145 139 112 93 75 65 52 45 36 9 93 106 118 137 137 140 138 146 151 141 135 150 210 134 138 143 174 339 1 23 39 57 64 56 59 66 55 49
170 160 152 152 149 147 140 134 141 138 147 190 192 145 30 80 109 114 129 139 146 146 154 167 151 150 147 162 26 99 148 152 150 129 0 2 21 44 34 62 56 49 46
161 152 149 151 154 152 146 146 145 141 158 149 120 100 68 68 105 118 131 135 139 146 156 159 148 156 158 165 162 140 102 83 125 143 175 317 5 351 358 27 65 42 32
149 149 146 147 165 162 149 147 151 153 150 136 139 135 95 58 78 111 130 134 144 151 164 165 164 167 168 163 155 158 156 152 166 148 165 184 201 305 346 343 337 242 56